Location: Cortada Guamacho
(10.5667°N, 67.0833°W)
Time: 06:48:54
(UTC+00:00)

Cosmos 2228 Rocket - Pass Details

Date: 09 July 2022
Orbit: 618 x 651 km, 82.5° (Epoch: 12 August)

Event Time Altitude Azimuth Distance (km) Brightness Sun altitude
Rises 07:55:09 0° 349° (NNW) 2,926 6.8 -30.7°
Reaches altitude 10° 07:57:25 10° 344° (NNW) 2,023 5.9 -30.2°
Enters shadow 07:57:44 12° 343° (NNW) 1,900 5.7 -30.1°
